Total_Precipitation_Accumulation
0.99 0.92 0.79 0.78 0.70 0.61 0.58 0.54 0.50 0.47 0.42 0.37 0.31 0.28 0.27 0.26 0.24 0.23 0.22 0.20 0.22 0.35 0.53 0.64 0.71 0.78 0.83 0.86 0.89 0.85 0.76 0.67 0.62 0.55 0.50 0.48 0.50 0.51 0.53 0.56 0.57 0.59 0.60
1.09 0.99 0.85 0.81 0.76 0.66 0.58 0.58 0.55 0.53 0.48 0.42 0.36 0.32 0.28 0.27 0.25 0.22 0.20 0.20 0.23 0.28 0.40 0.55 0.68 0.85 0.96 1.03 1.03 1.01 0.94 0.86 0.79 0.71 0.63 0.56 0.54 0.52 0.53 0.55 0.56 0.58 0.61
1.24 1.16 1.00 0.86 0.80 0.81 0.77 0.73 0.69 0.58 0.49 0.43 0.38 0.36 0.34 0.33 0.29 0.25 0.21 0.19 0.22 0.24 0.30 0.43 0.59 0.78 0.93 1.04 1.12 1.15 1.10 1.00 0.95 0.89 0.81 0.72 0.62 0.58 0.57 0.58 0.60 0.62 0.64
1.41 1.33 1.26 1.11 0.99 0.95 0.94 0.84 0.73 0.67 0.54 0.45 0.39 0.35 0.32 0.32 0.30 0.28 0.24 0.19 0.18 0.20 0.25 0.33 0.43 0.59 0.75 0.93 1.09 1.17 1.18 1.09 1.02 0.96 0.88 0.82 0.77 0.75 0.73 0.72 0.71 0.71 0.73
1.53 1.39 1.25 1.24 1.25 1.15 1.02 0.94 0.79 0.77 0.70 0.56 0.48 0.42 0.36 0.32 0.30 0.29 0.26 0.24 0.20 0.19 0.20 0.25 0.31 0.37 0.51 0.70 0.93 1.16 1.28 1.25 1.16 1.07 1.01 0.97 0.95 0.95 0.94 0.93 0.90 0.88 0.91
1.67 1.57 1.39 1.32 1.36 1.33 1.23 1.13 1.00 0.89 0.82 0.77 0.67 0.51 0.41 0.35 0.32 0.30 0.28 0.26 0.23 0.22 0.21 0.22 0.25 0.27 0.33 0.48 0.73 1.00 1.24 1.37 1.33 1.24 1.16 1.14 1.14 1.13 1.14 1.16 1.15 1.14 1.16
1.77 1.78 1.61 1.53 1.52 1.48 1.43 1.40 1.35 1.21 1.01 0.97 0.90 0.70 0.50 0.40 0.36 0.31 0.30 0.29 0.27 0.26 0.26 0.26 0.28 0.30 0.34 0.42 0.54 0.68 0.89 1.16 1.34 1.38 1.31 1.25 1.26 1.29 1.36 1.39 1.39 1.37 1.36
1.81 1.78 1.79 1.70 1.58 1.56 1.55 1.51 1.44 1.32 1.20 1.14 1.07 1.00 0.82 0.64 0.48 0.39 0.35 0.33 0.31 0.31 0.30 0.32 0.34 0.37 0.38 0.43 0.46 0.50 0.58 0.79 1.08 1.31 1.37 1.33 1.30 1.33 1.45 1.59 1.69 1.71 1.65
2.01 1.82 1.70 1.70 1.65 1.61 1.59 1.57 1.58 1.59 1.47 1.34 1.23 1.29 1.11 0.84 0.65 0.52 0.43 0.40 0.41 0.41 0.38 0.38 0.40 0.44 0.46 0.45 0.43 0.43 0.47 0.59 0.81 1.15 1.41 1.53 1.52 1.53 1.64 1.77 1.88 2.00 2.00
2.13 2.01 1.92 1.80 1.73 1.67 1.61 1.65 1.66 1.68 1.71 1.60 1.45 1.35 1.23 1.02 0.94 0.74 0.57 0.53 0.54 0.55 0.54 0.49 0.47 0.49 0.51 0.50 0.51 0.53 0.55 0.60 0.78 1.10 1.47 1.75 1.88 1.99 2.15 2.27 2.37 2.48 2.46
2.24 2.08 2.00 1.97 1.89 1.78 1.70 1.70 1.73 1.71 1.73 1.72 1.63 1.51 1.42 1.23 1.06 0.99 0.80 0.67 0.66 0.62 0.61 0.58 0.56 0.54 0.54 0.54 0.54 0.62 0.73 0.78 0.93 1.20 1.56 1.95 2.19 2.37 2.57 2.71 2.83 2.90 2.93
2.14 2.00 1.93 1.89 1.85 1.80 1.71 1.65 1.68 1.69 1.67 1.62 1.57 1.48 1.45 1.37 1.21 1.17 1.06 0.86 0.83 0.77 0.76 0.74 0.69 0.65 0.62 0.59 0.60 0.74 0.80 0.86 1.00 1.24 1.58 1.97 2.18 2.34 2.53 2.73 2.88 2.96 3.05
1.92 1.82 1.80 1.76 1.75 1.71 1.68 1.66 1.63 1.57 1.60 1.60 1.54 1.44 1.34 1.23 1.20 1.28 1.28 1.11 0.97 0.85 0.81 0.79 0.77 0.78 0.77 0.78 0.82 0.94 0.91 0.97 1.04 1.24 1.57 1.88 1.95 1.94 1.98 2.13 2.36 2.55 2.71
1.78 1.74 1.75 1.75 1.74 1.74 1.67 1.65 1.61 1.54 1.53 1.52 1.48 1.44 1.38 1.26 1.20 1.21 1.27 1.34 1.27 1.07 0.92 0.83 0.79 0.87 0.93 0.96 1.04 1.15 1.03 1.15 1.14 1.19 1.38 1.57 1.63 1.56 1.53 1.64 1.84 2.02 2.21
1.70 1.70 1.76 1.75 1.67 1.62 1.56 1.54 1.53 1.44 1.36 1.37 1.35 1.35 1.34 1.26 1.22 1.20 1.23 1.38 1.59 1.55 1.26 1.02 0.99 1.02 1.07 1.10 1.18 1.08 0.94 1.12 1.18 1.17 1.23 1.27 1.29 1.28 1.28 1.32 1.43 1.55 1.66
1.56 1.54 1.59 1.63 1.63 1.56 1.49 1.46 1.38 1.31 1.27 1.18 1.14 1.18 1.21 1.20 1.22 1.25 1.30 1.38 1.52 1.69 1.57 1.18 1.04 1.04 1.09 1.10 1.18 1.04 0.95 1.11 1.07 1.06 1.08 1.10 1.08 1.06 1.08 1.12 1.19 1.29 1.39
1.41 1.37 1.42 1.42 1.39 1.36 1.34 1.34 1.28 1.23 1.21 1.16 1.11 1.07 1.04 1.07 1.16 1.22 1.31 1.39 1.48 1.60 1.62 1.30 1.07 1.01 1.03 1.00 0.97 0.88 0.85 0.86 0.85 0.97 0.94 0.92 0.94 0.95 0.95 0.98 1.04 1.11 1.19
1.30 1.26 1.30 1.34 1.29 1.25 1.23 1.22 1.19 1.18 1.19 1.17 1.16 1.16 1.11 1.11 1.17 1.24 1.32 1.37 1.39 1.41 1.43 1.30 1.07 0.95 0.90 0.83 0.80 0.75 0.71 0.71 0.71 0.86 0.85 0.83 0.85 0.85 0.82 0.84 0.90 0.97 1.03
1.25 1.25 1.17 1.19 1.21 1.22 1.22 1.20 1.18 1.19 1.19 1.19 1.21 1.23 1.20 1.21 1.23 1.20 1.18 1.19 1.18 1.15 1.14 1.11 0.97 0.86 0.82 0.78 0.77 0.71 0.65 0.63 0.61 0.70 0.73 0.73 0.80 0.85 0.81 0.81 0.85 0.89 0.89
1.13 1.16 1.13 1.08 1.11 1.17 1.20 1.21 1.23 1.27 1.30 1.31 1.31 1.29 1.26 1.24 1.19 1.15 1.10 1.05 1.02 1.03 1.02 1.03 0.98 0.87 0.80 0.76 0.78 0.75 0.68 0.61 0.58 0.56 0.64 0.66 0.74 0.83 0.84 0.77 0.71 0.69 0.68
1.06 1.09 1.08 1.06 1.09 1.16 1.23 1.25 1.24 1.29 1.37 1.42 1.40 1.34 1.25 1.26 1.22 1.14 1.07 1.03 1.04 1.08 1.10 1.13 1.07 0.92 0.77 0.70 0.67 0.64 0.66 0.65 0.61 0.56 0.59 0.60 0.62 0.62 0.64 0.70 0.72 0.71 0.72
1.08 1.12 1.17 1.15 1.16 1.22 1.49 1.52 1.42 1.37 1.37 1.35 1.32 1.26 1.19 1.18 1.12 1.12 1.10 1.07 1.11 1.18 1.25 1.26 1.14 0.93 0.69 0.60 0.60 0.69 0.78 0.87 0.78 0.55 0.57 0.57 0.56 0.58 0.56 0.58 0.73 0.78 0.79
1.18 1.24 1.31 1.35 1.35 1.42 1.55 1.45 1.40 1.25 1.22 1.19 1.11 1.04 1.00 0.95 0.95 0.84 0.91 1.00 1.02 1.10 1.12 1.04 0.94 0.75 0.65 0.62 0.76 0.89 0.87 0.86 0.72 0.56 0.65 0.70 0.63 0.61 0.57 0.62 0.75 0.73 0.74
1.29 1.38 1.46 1.48 1.43 1.41 1.40 1.23 1.17 1.05 0.98 0.93 0.89 0.84 0.81 0.79 0.79 0.81 0.82 0.87 0.80 0.77 0.76 0.71 0.69 0.67 0.69 0.73 0.88 1.03 1.01 0.94 0.76 0.65 0.69 0.79 0.66 0.62 0.58 0.62 0.72 0.71 0.75
1.33 1.37 1.36 1.31 1.21 1.12 1.10 0.96 0.88 0.78 0.77 0.73 0.68 0.69 0.70 0.66 0.81 0.96 0.94 0.89 0.74 0.64 0.68 0.72 0.78 0.81 0.85 0.85 0.86 1.00 1.11 1.18 1.03 0.75 0.65 0.70 0.64 0.59 0.59 0.59 0.65 0.74 0.73
1.08 1.01 0.94 0.89 0.81 0.75 0.78 0.78 0.76 0.64 0.63 0.62 0.62 0.63 0.74 0.74 0.88 1.01 0.92 0.90 0.80 0.66 0.66 0.69 0.67 0.65 0.63 0.66 0.76 0.81 1.06 1.41 1.26 0.96 0.66 0.77 0.80 0.85 1.01 0.68 0.60 0.63 0.65